Location: Ehrke Reservoir
(40.0279°N, 99.6641°W)
Time: 16:16:56
(UTC+00:00)

STARLINK-1077 - Pass Details

Date: 20 January 2020
Orbit: 349 x 351 km, 53.0° (Epoch: 21 February)

Event Time Altitude Azimuth Distance (km) Brightness Sun altitude
Rises 00:01:31 0° 248° (WSW) 2,161 10.0 -4.2°
Reaches altitude 10° 00:03:37 10° 257° (WSW) 1,321 7.4 -4.6°
Maximum altitude 00:06:21 35° 326° (NW) 591 3.9 -5.1°
Drops below altitude 10° 00:09:08 10° 36° (NE) 1,330 5.1 -5.6°
Enters shadow 00:10:04 - 41° (NE) 1,696 5.6 -5.8°
